Weather in Firsovo

Russia / Zabaykalsky Krai     52°18′46″N   118°07′44″E
temp.,
°C
wind,
m/s
gust,
m/s
humid.,
%
clouds,
%
prec.,
mm/h
press.,
hPa
HPBL,
m
19 september, sun
sun1900:00+1ssw11690 0.0 102110
03:000ssw11690 0.0 102111
06:00−1sw11710 0.0 102210
09:00+6wsw11520 0.0 1022198
12:00+13wsw12350 0.0 1019771
15:00+15wsw34410 0.0 10171235
18:00+13wsw23625 0.0 101671
21:00+6ssw228645 0.0 101819
20 september, mon
mon2000:00+5ssw22940 0.0 101829
03:00+5s23945 0.0 101738
06:00+4s228831 0.0 101628
09:00+9ssw126541 0.0 1015186
12:00+16wsw135039 0.0 1012806
15:00+18wsw224515 0.0 10101539
18:00+13sw23707 0.0 101198
21:00+7s22955 0.0 101317
21 september, tue
tue2100:00+7se119437 0.0 101210
03:00+8ne119163 0.0 101112
06:00+7ene1191100 0.0 101117
09:00+9ne1182100 0.0 1010118
12:00+12nne116999 0.0 1009370
15:00+16w125887 0.1 1007861
18:00+11sse1195100 1.1 100825
21:00+9sse119627 1.3 100911
22 september, wed
wed2200:00+10ese119565 0.0 100918
03:00+9ese119565 0.1 100922
06:00+7se2295100 0.0 100931
09:00+10se129196 0.0 101080
12:00+14s376886 0.0 1010854
15:00+16ssw465375 0.0 10101371
18:00+14s226914 0.0 101130
21:00+9sse22888 0.0 101323
23 september, thu
thu2300:00+7sse1194100 0.0 101416
03:00+9ese0099100 7.9 101428
06:00+8e1399100 7.9 1013146
09:00+9ese1397100 10.6 1013172
12:00+10sse2889100 0.4 1012897
15:00+10sw1295100 0.6 101365
18:00+10w129696 0.2 1014155
21:00+9wsw2595100 0.3 1016264